Meteo pe oră la Dzierzaznik

Astăzi, 2 Martie, Marţi

Timp Temperatura Precipitaţii Vânt Presiune Umiditate
00:00 +2°C° 0 mm 1 m/s 759 mmHg 92%
01:00 +1°C° 0 mm 2 m/s 759 mmHg 92%
02:00 +1°C° 0 mm 2 m/s 759 mmHg 92%
03:00 +1°C° 0 mm 2 m/s 758 mmHg 92%
04:00 +1°C° 0 mm 2 m/s 758 mmHg 92%
05:00 +1°C° 0 mm 2 m/s 758 mmHg 92%
06:00 +1°C° 0 mm 2 m/s 758 mmHg 91%
07:00 +1°C° 0 mm 2 m/s 758 mmHg 91%
08:00 +3°C° 0 mm 2 m/s 758 mmHg 83%
09:00 +5°C° 0 mm 2 m/s 758 mmHg 76%
10:00 +7°C° 0 mm 2 m/s 758 mmHg 69%
11:00 +8°C° 0 mm 2 m/s 758 mmHg 64%
12:00 +9°C° 0 mm 3 m/s 758 mmHg 60%
13:00 +11°C° 0 mm 3 m/s 758 mmHg 56%
14:00 +11°C° 0 mm 3 m/s 758 mmHg 57%
15:00 +12°C° 0 mm 2 m/s 757 mmHg 58%
16:00 +12°C° 0 mm 2 m/s 757 mmHg 59%
17:00 +9°C° 0 mm 2 m/s 757 mmHg 64%
18:00 +8°C° 0 mm 2 m/s 757 mmHg 70%
19:00 +7°C° 0 mm 2 m/s 757 mmHg 75%
20:00 +7°C° 0 mm 1 m/s 757 mmHg 77%
21:00 +6°C° 0 mm 1 m/s 757 mmHg 79%
22:00 +6°C° 0 mm 1 m/s 757 mmHg 82%
23:00 +5°C° 0 mm 1 m/s 757 mmHg 82%

Mâine, 3 Martie, Miercuri

Timp Temperatura Precipitaţii Vânt Presiune Umiditate
00:00 +4°C° 0 mm 0 m/s 757 mmHg 82%
01:00 +4°C° 0 mm 0 m/s 757 mmHg 83%
02:00 +3°C° 0 mm 0 m/s 757 mmHg 83%
03:00 +3°C° 0 mm 0 m/s 756 mmHg 83%
04:00 +4°C° 0 mm 1 m/s 756 mmHg 84%
05:00 +3°C° 0 mm 1 m/s 756 mmHg 85%
06:00 +3°C° 0 mm 1 m/s 756 mmHg 85%
07:00 +3°C° 0 mm 1 m/s 756 mmHg 85%
08:00 +5°C° 0 mm 1 m/s 755 mmHg 79%
09:00 +7°C° 0 mm 1 m/s 755 mmHg 72%
10:00 +9°C° 0 mm 1 m/s 755 mmHg 65%
11:00 +10°C° 0 mm 1 m/s 754 mmHg 60%
12:00 +11°C° 0 mm 1 m/s 754 mmHg 55%
13:00 +13°C° 0 mm 1 m/s 754 mmHg 50%
14:00 +13°C° 0 mm 1 m/s 753 mmHg 50%
15:00 +13°C° 0 mm 2 m/s 752 mmHg 50%
16:00 +13°C° 0 mm 2 m/s 751 mmHg 50%
17:00 +12°C° 0 mm 2 m/s 751 mmHg 54%
18:00 +9°C° 0 mm 2 m/s 751 mmHg 58%
19:00 +8°C° 0 mm 2 m/s 751 mmHg 62%
20:00 +7°C° 0 mm 2 m/s 750 mmHg 65%
21:00 +5°C° 0 mm 3 m/s 750 mmHg 67%
22:00 +5°C° 0 mm 3 m/s 749 mmHg 70%
23:00 +4°C° 0 mm 3 m/s 749 mmHg 73%

Poimâine, 4 Martie, Joi

Timp Temperatura Precipitaţii Vânt Presiune Umiditate
00:00 +4°C° 0 mm 3 m/s 748 mmHg 76%
01:00 +3°C° 0 mm 3 m/s 748 mmHg 79%
02:00 +3°C° 0 mm 3 m/s 747 mmHg 79%
03:00 +3°C° 0 mm 3 m/s 747 mmHg 80%
04:00 +3°C° 0 mm 3 m/s 746 mmHg 80%
05:00 +3°C° 0 mm 3 m/s 746 mmHg 81%
06:00 +3°C° 0 mm 3 m/s 745 mmHg 82%
07:00 +3°C° 0 mm 3 m/s 745 mmHg 84%
08:00 +4°C° 0 mm 4 m/s 745 mmHg 79%
09:00 +6°C° 0 mm 4 m/s 744 mmHg 74%
10:00 +7°C° 0 mm 4 m/s 744 mmHg 69%
11:00 +8°C° 0 mm 5 m/s 744 mmHg 67%
12:00 +9°C° 0 mm 5 m/s 743 mmHg 66%
13:00 +10°C° 0 mm 5 m/s 743 mmHg 64%
14:00 +11°C° 0 mm 4 m/s 742 mmHg 66%
15:00 +10°C° 0 mm 4 m/s 742 mmHg 67%
16:00 +10°C° 0 mm 3 m/s 741 mmHg 68%
17:00 +9°C° 0.4 mm 3 m/s 741 mmHg 74%
18:00 +8°C° 0.4 mm 3 m/s 741 mmHg 79%
19:00 +8°C° 0.4 mm 3 m/s 741 mmHg 85%
20:00 +7°C° 0.6 mm 2 m/s 740 mmHg 87%
21:00 +7°C° 0.6 mm 2 m/s 740 mmHg 88%
22:00 +6°C° 0.6 mm 2 m/s 740 mmHg 90%
23:00 +6°C° 0.8 mm 2 m/s 740 mmHg 90%

5 Martie, Vineri

Timp Temperatura Precipitaţii Vânt Presiune Umiditate
00:00 +4°C° 0.8 mm 3 m/s 740 mmHg 91%
01:00 +4°C° 0.8 mm 3 m/s 740 mmHg 91%
02:00 +3°C° 0.6 mm 4 m/s 740 mmHg 92%
03:00 +3°C° 0.6 mm 4 m/s 740 mmHg 93%
04:00 +1°C° 0.6 mm 4 m/s 740 mmHg 93%
05:00 0°C° 0.1 mm 5 m/s 741 mmHg 93%
06:00 -1°C° 0.1 mm 5 m/s 741 mmHg 92%
07:00 -1°C° 0.1 mm 5 m/s 742 mmHg 92%
08:00 -1°C° 0.1 mm 5 m/s 742 mmHg 86%
09:00 -1°C° 0.1 mm 5 m/s 743 mmHg 79%
10:00 -1°C° 0.1 mm 5 m/s 744 mmHg 73%
11:00 -1°C° 0 mm 5 m/s 744 mmHg 67%
12:00 0°C° 0 mm 5 m/s 745 mmHg 61%
13:00 0°C° 0 mm 5 m/s 745 mmHg 55%
14:00 0°C° 0 mm 5 m/s 746 mmHg 54%
15:00 0°C° 0 mm 5 m/s 746 mmHg 52%
16:00 0°C° 0 mm 5 m/s 746 mmHg 50%
17:00 0°C° 0 mm 4 m/s 747 mmHg 54%
18:00 0°C° 0 mm 3 m/s 747 mmHg 59%
19:00 -1°C° 0 mm 2 m/s 748 mmHg 63%
20:00 -1°C° 0 mm 2 m/s 749 mmHg 65%
21:00 -1°C° 0 mm 2 m/s 749 mmHg 66%
22:00 -1°C° 0 mm 2 m/s 750 mmHg 68%
23:00 -2°C° 0 mm 2 m/s 750 mmHg 68%

6 Martie, Sâmbătă

Timp Temperatura Precipitaţii Vânt Presiune Umiditate
00:00 -2°C° 0 mm 2 m/s 751 mmHg 69%
01:00 -2°C° 0 mm 2 m/s 751 mmHg 70%
02:00 -2°C° 0 mm 2 m/s 751 mmHg 70%
03:00 -2°C° 0 mm 2 m/s 752 mmHg 70%
04:00 -2°C° 0 mm 2 m/s 752 mmHg 69%
05:00 -2°C° 0 mm 2 m/s 753 mmHg 70%
06:00 -2°C° 0 mm 2 m/s 753 mmHg 70%
07:00 -3°C° 0 mm 2 m/s 754 mmHg 70%
08:00 -2°C° 0 mm 2 m/s 754 mmHg 63%
09:00 -1°C° 0 mm 3 m/s 755 mmHg 56%
10:00 0°C° 0 mm 3 m/s 755 mmHg 49%
11:00 0°C° 0 mm 3 m/s 755 mmHg 46%
12:00 +1°C° 0 mm 3 m/s 755 mmHg 44%
13:00 +1°C° 0 mm 3 m/s 755 mmHg 41%
14:00 +1°C° 0 mm 3 m/s 756 mmHg 43%
15:00 +1°C° 0 mm 3 m/s 756 mmHg 44%
16:00 +1°C° 0 mm 3 m/s 756 mmHg 45%
17:00 +1°C° 0 mm 2 m/s 756 mmHg 50%
18:00 -1°C° 0 mm 2 m/s 756 mmHg 55%
19:00 -2°C° 0 mm 2 m/s 757 mmHg 60%
20:00 0°C° 0 mm 1 m/s 757 mmHg 59%
21:00 0°C° 0 mm 1 m/s 757 mmHg 58%
22:00 0°C° 0 mm 1 m/s 757 mmHg 57%
23:00 0°C° 0 mm 1 m/s 757 mmHg 57%

7 Martie, Duminică

Timp Temperatura Precipitaţii Vânt Presiune Umiditate
00:00 -3°C° 0 mm 2 m/s 757 mmHg 58%
01:00 -3°C° 0 mm 2 m/s 757 mmHg 58%
02:00 -3°C° 0 mm 2 m/s 757 mmHg 59%
03:00 -4°C° 0 mm 3 m/s 757 mmHg 59%
04:00 -4°C° 0 mm 3 m/s 756 mmHg 60%
05:00 -4°C° 0 mm 3 m/s 756 mmHg 59%
06:00 -4°C° 0 mm 3 m/s 756 mmHg 58%
07:00 -3°C° 0 mm 4 m/s 756 mmHg 57%
08:00 -2°C° 0 mm 4 m/s 756 mmHg 51%
09:00 -1°C° 0 mm 5 m/s 756 mmHg 45%
10:00 +1°C° 0 mm 5 m/s 756 mmHg 39%
11:00 +1°C° 0 mm 5 m/s 755 mmHg 39%
12:00 +2°C° 0 mm 5 m/s 755 mmHg 38%
13:00 +3°C° 0 mm 5 m/s 754 mmHg 37%
14:00 +2°C° 0 mm 5 m/s 754 mmHg 40%
15:00 +2°C° 0 mm 5 m/s 753 mmHg 43%
16:00 +2°C° 0 mm 5 m/s 752 mmHg 45%
17:00 +1°C° 0 mm 4 m/s 752 mmHg 50%
18:00 -1°C° 0 mm 4 m/s 752 mmHg 55%
19:00 -1°C° 0 mm 3 m/s 751 mmHg 60%
20:00 -2°C° 0 mm 4 m/s 751 mmHg 61%
21:00 -3°C° 0 mm 4 m/s 751 mmHg 61%
22:00 -3°C° 0 mm 4 m/s 751 mmHg 62%
23:00 -3°C° 0 mm 4 m/s 750 mmHg 62%
Arată mai mult

Formular de consimțământ

Meteoprog și furnizorii noștri de servicii pot stoca și accesa date personale, precum cookies, identificatori de dispozitiv sau alte tehnologii similare pe dispozitivul dumneavoastră și procesa astfel de date pentru a personaliza conținutul și reclamele, dar și pentru a oferi caracteristici de social media și pentru a analiza traficul.

  • Stocarea și/sau accesarea informațiilor pe dispozitivul dumneavoastră

    Cookies, identificatori de dispozitiv sau alte informații pot fi stocate sau accesate pe dispozitiv în scopurile indicate mai sus.

  • Reclame și conținut personalizat, evaluarea reclamelor și a conținutului, informații despre audiențe și dezvoltarea produselor

    Reclamele și conținutul pot fi personalizate pe baza unui profil. Pot fi adăugate date suplimentare pentru a personaliza mai bine reclamele și conținutul. Performanța reclamelor și conținutului poate fi măsurată. Pot fi obținute informații despre utilizatorii care au văzut reclamele și conținutul. Aceste date pot fi utilizate pentru a dezvolta sau îmbunătăți experiența utilizatorilor, sistemele și software-ul.

Dând clic pe ‘Sunt de acord’, permiteți utilizarea cookie-urilor menționate, a identificatorilor de dispozitiv, balizelor web sau altor tehnologii similare. Setările pot fi modificate din browser-ul dispozitivului dumneavoastră.

În anumite scopuri, interesele legitime pot prima asupra consimțământului. Puteți citi mai multe informații în acest sens în Politica privind Confidențialitatea Datelor și Cookie.